Location: Espelette
(43.3402°N, 1.4474°W)
Time: 15:04:40
(UTC+00:00)

Cosmos 1782 - Pass Details

Date: 19 May 2025
Orbit: 478 x 490 km, 82.5° (Epoch: 17 June)

Event Time Altitude Azimuth Distance (km) Brightness Sun altitude
Rises 20:18:29 0° 190° (S) 2,556 6.0 -8.5°
Reaches altitude 10° 20:20:35 10° 192° (SSW) 1,678 5.0 -8.8°
Maximum altitude 20:24:15 75° 278° (W) 512 2.8 -9.3°
Drops below altitude 10° 20:27:56 10° 5° (N) 1,687 5.8 -9.9°
Sets 20:30:03 0° 7° (N) 2,571 6.7 -10.2°
